User: anonymous   Login
Location: Fort Wayne
(41.1310°N, 85.1290°W)
Time: 17:41:47
(UTC-04:00)
Language:

IDEFIX/ARIANE 42P - Orbit

View from above orbital plane
View from above orbital plane
View from above satellite
View from above satellite

Ground track
Ground track

The orbit data is extracted from the following two-line orbital elements,

1 27422U 02021B   17265.95903835 -.00000044 +00000-0 -14316-5 0  9995
2 27422 098.2359 260.8561 0011428 311.3279 048.6920 14.29256355802534
Epoch (UTC): 22 September 2017 23:01:00
Eccentricity: 0.0011428
inclination: 98.2359°
perigee height: 786 km
apogee height: 802 km
right ascension of ascending node: 260.8561°
argument of perigee: 311.3279°
revolutions per day: 14.29256355
mean anomaly at epoch: 48.6920°
orbit number at epoch: 80253

The dashed part of the orbit path shows where the satellite is in the earth's shadow,  

DLR